sat.trackr.live / text

‹ back to catalog

STARLINK-33744

NORAD 63471 · 2025-070M

PAYLOAD ACTIVE UNKNOWN

§ Identity

Operator
Country
US
Launch date
2025-04-06
Launch site
AFETR
Launch vehicle
Mass (kg)
RCS (m²)

Purposes: comms

External: N2YO · Heavens-Above · Gunter

§ Orbital elements

Epoch: 2026-09-20T00:24:53.725536Z

Period
94.27 min
Inclination
42.9994°
Eccentricity
0.0001331
Mean motion
15.27590298 rev/d
Perigee alt
482.1 km
Apogee alt
483.9 km
Semi-major
6,861.2 km
B*
4.0570e-4
RAAN
242.5693°
Arg perigee
261.6740°
Mean anomaly
98.3961°
Rev number
8,269

§ Raw data

STARLINK-337441 63471U 25070M   26263.01728849  .00010922  00000+0  40570-3 0  99952 63471  42.9994 242.5693 0001331 261.6740  98.3961 15.27590298 82694

JSON: /api/v1/satellites/63471 · /tle

For live sub-satellite position, see the globe view (requires WebGL).

§ Visibility from observer

Set your observer location to see the next 7 days of passes ≥ 10°. The values pass through the URL so the page stays shareable.

No JS? Fill the form by hand. The geolocation button needs JavaScript.